[[{"header":{"parameterUnit":"m.s-1","parameterCategory":1,"la1":30.2991,"la2":30.254,"lo1":-89.0895,"lo2":-89.0444,"dy":0.0017,"dx":0.0017,"nx":28,"ny":28,"refTime":"2024-06-06T03:00:00:Z","depth":0,"parameterNumber":2,"parameterNumberName":"U-component_of_WINDS"},"data":[0,0,0,0,0,0,0,0,0,0,0,0,0,0,0,0,0,0,0,0,0,0,0,0,0,0,0,0,0,0,0,0,0,0,0,0,0,0,0,0,0,0,0,0,0,0,0,0,0,0,0,0,0,0,0,0,0,0,-0.7875,-0.7875,0,-0.7866,-0.7866,-0.7865,-0.7838,-0.7837,-0.7837,-0.7836,-0.7827,-0.7828,-0.7828,0,0,0,0,0,0,0,0,0,0,0,0,0,-0.7871,-0.7871,-0.7875,-0.7875,-0.7875,-0.7866,-0.7865,-0.7865,-0.7838,-0.7837,-0.7837,-0.7836,-0.7827,-0.7828,-0.7828,0,0,0,0,0,0,0,0,0,0,0,0,0,-0.7868,-0.7871,-0.7875,-0.786,-0.7859,-0.7866,-0.7865,-0.7865,-0.7838,-0.7837,-0.7837,-0.7836,-0.7827,-0.7828,-0.7828,-0.7849,0,0,-0.7829,-0.783,0,0,0,0,0,0,0,0,-0.7868,-0.7868,-0.7863,-0.7861,-0.786,-0.7852,-0.7861,-0.786,-0.7839,-0.7846,-0.7836,-0.7835,-0.7836,-0.7836,-0.7836,-0.7848,-0.7848,-0.7829,-0.783,-0.783,-0.783,0,0,0,0,0,0,0,-0.7869,-0.7869,-0.7871,-0.7863,-0.7861,-0.7854,-0.7853,-0.786,-0.7846,-0.7845,-0.7843,-0.7843,-0.7835,-0.7836,-0.7836,-0.7848,-0.7829,-0.783,-0.783,-0.783,-0.7876,-0.7877,0,0,0,0,0,0,-0.7871,-0.7869,-0.7872,-0.7871,-0.7862,-0.7855,-0.7854,-0.7855,-0.7846,-0.7844,-0.7843,-0.7841,-0.7835,-0.7835,-0.7835,-0.7859,-0.783,-0.783,-0.7831,-0.7876,-0.7877,-0.7878,0,0,0,0,0,0,-0.7871,-0.7871,-0.7872,-0.7869,-0.7869,-0.7856,-0.7858,-0.7856,-0.7856,-0.7845,-0.7842,-0.7846,-0.7835,-0.7835,-0.7846,-0.7858,-0.7831,-0.7831,-0.7874,-0.7876,-0.7877,-0.7906,0,0,0,0,0,0,-0.7871,-0.7871,-0.7879,-0.787,-0.7869,-0.7882,-0.7859,-0.7856,-0.7857,-0.7854,-0.7847,-0.7845,-0.7834,-0.7845,-0.7846,-0.7858,-0.7831,-0.7873,-0.7875,-0.7877,-0.7904,-0.7908,-0.7912,0,0,0,0,0,-0.7871,-0.7888,-0.788,-0.788,-0.7879,-0.7883,-0.7883,-0.787,-0.7858,-0.7866,-0.7858,-0.7845,-0.7857,-0.7846,-0.7847,-0.786,-0.7872,-0.7875,-0.7877,-0.7902,-0.7908,-0.7912,0,0,0,0,0,0,-0.7899,-0.7886,-0.7877,-0.7892,-0.7889,-0.7879,-0.7888,-0.7876,-0.7877,-0.7874,-0.7858,-0.7857,-0.787,-0.7866,-0.7855,-0.7879,-0.7862,-0.7865,-0.7881,-0.7886,-0.789,-0.7891,-0.7832,0,0,0,0,0,-0.7907,-0.7912,-0.79,-0.7914,-0.7913,-0.7901,-0.7902,-0.7893,-0.7889,-0.7888,-0.7881,-0.7878,-0.7881,-0.7884,-0.7886,-0.7903,-0.7901,-0.7913,-0.7917,-0.792,-0.7922,-0.7931,-0.7936,-0.7885,-0.7885,-0.7885,0,0,-0.7924,-0.7917,-0.7921,-0.792,-0.7916,-0.7922,-0.79,-0.7907,-0.791,-0.7889,-0.7898,-0.7894,-0.789,-0.7904,-0.791,-0.7901,-0.7936,-0.7923,-0.7926,-0.7926,-0.7934,-0.7939,-0.7943,-0.7886,-0.7886,-0.7886,0,0,-0.7956,-0.7952,-0.7963,-0.796,-0.7955,-0.7946,-0.7949,-0.7941,-0.7937,-0.7946,-0.793,-0.7934,-0.794,-0.7938,-0.7937,-0.7969,-0.7957,-0.797,-0.7991,-0.8,-0.8004,-0.8007,-0.8019,-0.8023,-0.7972,-0.7973,-0.7973,0,-0.7978,-0.7985,-0.797,-0.7978,-0.7978,-0.7958,-0.7969,-0.7967,-0.7963,-0.7964,-0.7954,-0.796,-0.7956,-0.7969,-0.7977,-0.7978,-0.798,-0.7971,-0.8005,-0.8008,-0.8011,-0.8021,-0.8026,-0.7974,-0.7974,-0.7974,-0.7974,0,-0.8011,-0.8016,-0.8026,-0.8022,-0.8023,-0.8032,-0.802,-0.8022,-0.8013,-0.8005,-0.8015,-0.801,-0.801,-0.8013,-0.8003,-0.8025,-0.8019,-0.8007,-0.799,-0.8018,-0.8027,-0.8031,-0.7977,-0.7976,-0.7975,-0.7975,0,0,-0.8061,-0.8049,-0.8053,-0.8051,-0.8044,-0.8048,-0.8056,-0.8056,-0.8059,-0.8057,-0.8064,-0.8069,-0.8058,-0.8057,-0.8047,-0.8055,-0.808,-0.8042,-0.8042,-0.8049,-0.8103,-0.8112,-0.8117,-0.8072,-0.8073,-0.8074,-0.8104,0,-0.8092,-0.8105,-0.8093,-0.8109,-0.8113,-0.8095,-0.8102,-0.8099,-0.8092,-0.8095,-0.8088,-0.8092,-0.8077,-0.8076,-0.8083,-0.8076,-0.8091,-0.8074,-0.8078,-0.8079,-0.808,-0.8122,-0.8132,-0.816,-0.8107,-0.8108,-0.8108,0,-0.813,-0.8129,-0.8145,-0.8137,-0.8138,-0.8145,-0.8144,-0.8147,-0.8143,-0.8138,-0.8137,-0.8125,-0.8133,-0.8116,-0.8127,-0.8115,-0.8116,-0.8113,-0.8114,-0.8114,-0.8095,-0.8123,-0.8169,-0.8173,-0.8114,-0.8114,-0.8113,0,-0.8164,-0.8168,-0.8178,-0.8176,-0.8167,-0.8172,-0.8168,-0.8163,-0.8164,-0.8164,-0.8164,-0.8164,-0.8165,-0.8165,-0.8154,-0.8143,-0.8166,-0.8148,-0.8162,-0.8162,-0.8168,-0.8167,-0.8214,-0.8169,-0.8169,-0.8169,-0.8169,0,-0.82,-0.8211,-0.8193,-0.8199,-0.8211,-0.8196,-0.8208,-0.8202,-0.8198,-0.8203,-0.8187,-0.8192,-0.8177,-0.818,-0.8172,-0.8182,-0.8182,-0.8178,-0.8176,-0.8179,-0.818,-0.818,-0.8178,-0.817,-0.817,-0.8169,-0.8169,0,-0.8241,-0.8229,-0.8239,-0.8229,-0.8227,-0.8236,-0.8227,-0.8233,-0.8225,-0.8232,-0.8232,-0.822,-0.8224,-0.8212,-0.8214,-0.8208,-0.8223,-0.8217,-0.8224,-0.8222,-0.8237,-0.8235,-0.8285,-0.8291,-0.8242,-0.8242,-0.8243,0,-0.8264,-0.8272,-0.8263,-0.8264,-0.8262,-0.8265,-0.8266,-0.8252,-0.8253,-0.8249,-0.8255,-0.8257,-0.8257,-0.8264,-0.8255,-0.8256,-0.8251,-0.8268,-0.8251,-0.8254,-0.8251,-0.825,-0.8251,-0.8271,-0.8272,-0.8273,-0.8273,0,-0.8307,-0.8301,-0.8302,-0.8301,-0.8303,-0.8302,-0.83,-0.8302,-0.8287,-0.829,-0.8292,-0.8293,-0.8294,-0.8296,-0.8296,-0.8292,-0.828,-0.8278,-0.8282,-0.8285,-0.8289,-0.8287,-0.8234,-0.8277,-0.8277,-0.8277,-0.8276,-0.8276,-0.8339,-0.8345,-0.8339,-0.8341,-0.8338,-0.8337,-0.8341,-0.8334,-0.8336,-0.8336,-0.8327,-0.8332,-0.8328,-0.8325,-0.8323,-0.8326,-0.8318,-0.8323,-0.8324,-0.8326,-0.8328,-0.8289,-0.8326,-0.8326,-0.8326,-0.8326,-0.8326,0,-0.8381,-0.8376,-0.8378,-0.8376,-0.8377,-0.8365,-0.8362,-0.8365,-0.8369,-0.8365,-0.8366,-0.837,-0.8372,-0.8363,-0.8364,-0.8369,-0.8363,-0.8369,-0.8369,-0.8368,-0.8335,-0.8332,-0.8374,-0.8374,-0.8374,-0.8374,-0.8374,-0.8374,-0.8403,-0.8412,-0.8405,-0.8413,-0.8408,-0.8412,-0.8411,-0.841,-0.8407,-0.8411,-0.8413,-0.8407,-0.8402,-0.8402,-0.8403,-0.8401,-0.8402,-0.841,-0.8406,-0.8375,-0.837,-0.8366,-0.8363,-0.841,-0.841,-0.8438,-0.8438,-0.8439]},{"header":{"parameterUnit":"m.s-1","parameterCategory":1,"la1":30.2991,"la2":30.254,"lo1":-89.0895,"lo2":-89.0444,"dy":0.0017,"dx":0.0017,"nx":28,"ny":28,"refTime":"2024-06-06T03:00:00:Z","depth":0,"parameterNumber":3,"parameterNumberName":"V-component_of_WINDS"},"data":[0,0,0,0,0,0,0,0,0,0,0,0,0,0,0,0,0,0,0,0,0,0,0,0,0,0,0,0,0,0,0,0,0,0,0,0,0,0,0,0,0,0,0,0,0,0,0,0,0,0,0,0,0,0,0,0,0,0,0.9313,0.9314,0,0.9407,0.9408,0.9409,0.9434,0.9433,0.9433,0.9432,0.9532,0.9535,0.9538,0,0,0,0,0,0,0,0,0,0,0,0,0,0.9157,0.916,0.9313,0.9314,0.9315,0.9407,0.9408,0.9409,0.9434,0.9433,0.9433,0.9432,0.9531,0.9535,0.9538,0,0,0,0,0,0,0,0,0,0,0,0,0,0.9235,0.9161,0.9312,0.9338,0.9342,0.9406,0.9408,0.9409,0.9434,0.9433,0.9433,0.9432,0.953,0.9534,0.9539,0.9586,0,0,0.9554,0.9556,0,0,0,0,0,0,0,0,0.9231,0.9241,0.9333,0.9337,0.934,0.9408,0.939,0.9469,0.9434,0.9399,0.9432,0.9431,0.9491,0.9499,0.9519,0.959,0.9594,0.9554,0.9557,0.9559,0.956,0,0,0,0,0,0,0,0.9225,0.9237,0.935,0.9335,0.9339,0.9346,0.9356,0.9405,0.9449,0.9402,0.9404,0.9415,0.9493,0.9514,0.9521,0.9596,0.9554,0.9558,0.9561,0.9563,0.971,0.9711,0,0,0,0,0,0,0.9215,0.9232,0.9347,0.9353,0.9282,0.935,0.9361,0.9387,0.9449,0.9457,0.9415,0.9416,0.9507,0.9516,0.9525,0.9583,0.9559,0.9563,0.9566,0.9709,0.971,0.9711,0,0,0,0,0,0,0.9212,0.9225,0.9343,0.9293,0.9309,0.9353,0.9382,0.9389,0.941,0.9459,0.9467,0.9429,0.9506,0.9518,0.957,0.9587,0.9565,0.957,0.9708,0.9709,0.9711,0.97,0,0,0,0,0,0,0.9207,0.9224,0.9241,0.9293,0.9311,0.9386,0.9383,0.9392,0.9418,0.9419,0.9473,0.9481,0.9506,0.9563,0.9575,0.9593,0.9574,0.9706,0.9708,0.971,0.9699,0.9701,0.9703,0,0,0,0,0,0.9202,0.9236,0.9242,0.9256,0.9334,0.9387,0.9397,0.9424,0.9419,0.9438,0.9469,0.948,0.9583,0.9568,0.9582,0.9602,0.9705,0.9708,0.971,0.9699,0.9701,0.9703,0,0,0,0,0,0,0.9186,0.9243,0.9251,0.9303,0.9339,0.9391,0.9415,0.9426,0.9466,0.9466,0.9499,0.9511,0.956,0.9586,0.9568,0.965,0.9644,0.965,0.9631,0.9634,0.9636,0.9629,0.9578,0,0,0,0,0,0.9188,0.9225,0.9273,0.9315,0.9332,0.937,0.9394,0.9412,0.9452,0.9468,0.9503,0.9542,0.9583,0.961,0.9651,0.9703,0.9715,0.9724,0.9726,0.9727,0.9731,0.9761,0.9765,0.9719,0.9719,0.9719,0,0,0.9194,0.923,0.9251,0.9312,0.9343,0.9381,0.9383,0.9424,0.9453,0.9475,0.9525,0.9552,0.9598,0.965,0.9675,0.9673,0.9747,0.973,0.9731,0.9734,0.9764,0.9768,0.9772,0.972,0.972,0.972,0,0,0.9224,0.9255,0.9292,0.9322,0.9368,0.9393,0.9401,0.9451,0.9469,0.952,0.9537,0.9572,0.9643,0.9675,0.97,0.9741,0.9752,0.9753,0.9763,0.9792,0.9795,0.9799,0.9813,0.9818,0.9757,0.9757,0.9757,0,0.9226,0.9283,0.931,0.9349,0.9375,0.9395,0.9434,0.9462,0.9519,0.9537,0.9535,0.9623,0.9656,0.9715,0.9725,0.9745,0.9756,0.9748,0.9792,0.9796,0.98,0.9814,0.9819,0.9757,0.9757,0.9757,0.9757,0,0.9283,0.9322,0.9347,0.94,0.9429,0.9468,0.9501,0.9528,0.9542,0.9568,0.9619,0.9659,0.9707,0.9723,0.9739,0.9785,0.9782,0.9785,0.9781,0.9803,0.9817,0.9823,0.9757,0.9757,0.9757,0.9757,0,0,0.9307,0.9373,0.9381,0.9405,0.9457,0.9488,0.9528,0.9574,0.9596,0.9635,0.9669,0.9728,0.9731,0.976,0.9779,0.9804,0.9833,0.9804,0.9806,0.9808,0.9886,0.9884,0.9889,0.9841,0.9842,0.9843,0.9882,0,0.9343,0.9413,0.9438,0.9496,0.9533,0.9552,0.9586,0.9622,0.9646,0.9682,0.9709,0.975,0.9751,0.9768,0.9794,0.9824,0.9849,0.9822,0.9874,0.9875,0.9862,0.9897,0.9894,0.993,0.9888,0.9889,0.989,0,0.9395,0.9433,0.9494,0.9539,0.9556,0.9586,0.963,0.9664,0.9705,0.9721,0.9752,0.977,0.9812,0.9804,0.9864,0.9844,0.9867,0.9886,0.9888,0.9894,0.9884,0.9904,0.9942,0.9947,0.9899,0.9898,0.9897,0,0.9406,0.9472,0.9517,0.9537,0.9592,0.9612,0.9636,0.9676,0.9702,0.9741,0.9759,0.9802,0.9827,0.9861,0.989,0.9881,0.9947,0.9941,0.9962,0.9961,0.9975,0.9974,1.0017,0.9989,0.9989,0.9989,0.9989,0,0.9445,0.9481,0.9522,0.955,0.9592,0.962,0.9661,0.9686,0.9721,0.9755,0.9775,0.9806,0.9842,0.9878,0.9901,0.9947,0.9958,0.9973,0.9978,0.9971,0.9969,0.9987,0.9985,0.9991,0.999,0.999,0.999,0,0.9464,0.9493,0.9544,0.959,0.9603,0.9632,0.9672,0.97,0.9725,0.9767,0.9779,0.9818,0.9862,0.9893,0.995,0.9966,1.0015,1.0021,1.0,1.0003,1.0022,1.002,1.0078,1.0087,1.0053,1.0053,1.0054,0,0.9487,0.9515,0.9565,0.9587,0.9611,0.9648,0.9674,0.9703,0.973,0.9777,0.98,0.9844,0.9881,0.995,0.9984,1.0028,1.0035,1.0052,1.0042,1.0033,1.0035,1.0033,1.0036,1.0054,1.0054,1.0054,1.0055,0,0.9524,0.9536,0.9573,0.9613,0.9644,0.9678,0.9712,0.973,0.9765,0.9795,0.9838,0.9867,0.9924,0.9968,1.0014,1.004,1.0054,1.0057,1.0064,1.0057,1.0044,1.0052,1.0005,1.0056,1.0056,1.0056,1.0056,1.0056,0.9546,0.9572,0.961,0.965,0.9678,0.9709,0.9737,0.9765,0.9801,0.9849,0.9864,0.9909,0.9949,1.0013,1.0039,1.0076,1.0075,1.0086,1.0088,1.009,1.009,1.0038,1.0084,1.0084,1.0084,1.0084,1.0084,0,0.9584,0.9609,0.9645,0.9692,0.9723,0.973,0.9769,0.9795,0.9834,0.9869,0.9904,0.9954,0.9997,1.0034,1.0078,1.01,1.0108,1.0111,1.011,1.0116,1.0088,1.0077,1.0105,1.0105,1.0105,1.0104,1.0104,1.0104,0.9608,0.9651,0.9668,0.9726,0.9752,0.9795,0.9816,0.9845,0.9873,0.9928,0.9962,0.9986,1.0022,1.0069,1.0108,1.0118,1.0134,1.0136,1.0147,1.012,1.0118,1.0116,1.0106,1.0139,1.0139,1.0172,1.0173,1.0173]}]]